Temperature
5 5 5 5 4 4 4 4 4 4 4 5 5 6 6 6 6 6 6 6 6 6 6 6 6 6 6 6 6 6 6 6 6 6 6 6 6 6
4 4 4 4 4 4 4 4 3 3 3 4 4 5 5 5 5 5 5 5 6 5 5 6 6 6 6 6 6 6 6 6 6 6 6 6 6 6
4 4 3 3 3 3 3 3 3 3 3 3 4 4 4 4 5 5 5 5 5 5 5 5 5 5 5 5 5 5 5 5 5 5 5 5 5 5
3 3 3 3 3 3 2 3 2 2 2 3 3 3 3 3 4 4 4 4 4 4 4 5 5 4 5 5 5 5 4 4 4 4 4 5 5 5
2 2 2 2 2 2 2 2 2 2 2 2 2 2 3 3 3 3 3 3 3 3 4 4 4 4 4 4 4 4 4 4 4 4 4 4 4 4
2 2 2 2 2 1 1 1 1 1 2 2 2 2 2 2 2 2 2 3 3 3 3 3 3 3 3 3 3 3 3 3 3 3 3 3 4 4
2 2 2 1 1 1 1 1 1 1 1 1 1 1 1 1 1 1 1 2 2 2 2 2 2 2 3 3 2 2 2 2 2 2 3 3 3 3
1 1 1 1 1 1 0 0 0 0 0 0 0 0 0 1 0 0 0 0 0 1 1 1 1 2 2 2 2 2 2 2 2 2 2 2 2 3
1 1 1 1 0 0 0 0 0 -0 -0 -0 -0 0 -0 -0 -0 -0 -0 -0 -0 0 -0 0 1 1 1 1 1 1 1 1 1 1 1 1 2 2
0 0 0 0 0 -0 -0 -0 -0 -0 -0 -1 -0 -1 -1 -1 -1 -1 -1 -1 -1 -0 -1 -1 0 0 1 1 1 1 1 1 1 1 1 1 1 1
-0 -0 -0 -0 -0 -1 -1 -1 -0 -0 -0 -1 -1 -1 -1 -1 -1 -1 -2 -2 -2 -1 -1 -2 -1 -1 -0 0 0 0 0 0 0 0 0 0 1 1
-1 -1 -1 -1 -1 -1 -1 -1 -1 -1 -1 -1 -1 -1 -1 -1 -1 -2 -2 -2 -3 -3 -2 -3 -2 -3 -2 -1 -1 -1 -0 -0 -0 -0 0 0 -0 0
-1 -1 -1 -1 -2 -2 -2 -2 -2 -2 -2 -2 -2 -1 -2 -2 -2 -2 -2 -2 -3 -3 -2 -3 -3 -3 -3 -3 -2 -1 -1 -1 -1 -0 -0 -0 -0 -0
-2 -2 -2 -2 -2 -2 -2 -2 -2 -3 -2 -2 -2 -2 -2 -2 -2 -2 -2 -2 -2 -2 -2 -3 -3 -3 -4 -4 -3 -2 -1 -1 -1 -1 -1 -1 -0 -0
-2 -2 -3 -3 -3 -3 -3 -3 -3 -3 -3 -3 -3 -3 -3 -3 -3 -3 -3 -2 -2 -2 -3 -3 -3 -3 -4 -4 -3 -3 -2 -2 -2 -2 -1 -1 -1 -1
-3 -3 -3 -3 -3 -3 -3 -3 -3 -4 -4 -4 -4 -4 -4 -4 -4 -3 -3 -3 -3 -2 -3 -3 -3 -4 -4 -3 -3 -3 -3 -3 -2 -2 -2 -2 -1 -1
-3 -3 -3 -3 -4 -4 -4 -4 -4 -4 -4 -4 -4 -4 -4 -4 -4 -4 -4 -4 -4 -4 -3 -3 -4 -4 -4 -4 -4 -3 -3 -3 -3 -3 -3 -2 -2 -2
-4 -4 -4 -4 -4 -5 -5 -5 -5 -5 -5 -5 -5 -5 -5 -5 -5 -5 -5 -5 -5 -4 -4 -4 -4 -4 -4 -4 -4 -4 -4 -4 -3 -3 -3 -3 -2 -2
-4 -4 -4 -5 -5 -5 -5 -5 -5 -5 -5 -5 -6 -6 -6 -6 -6 -6 -6 -5 -5 -5 -5 -5 -5 -5 -6 -5 -4 -4 -4 -4 -4 -4 -3 -3 -3 -3
-4 -4 -4 -5 -5 -5 -5 -6 -6 -6 -6 -6 -6 -6 -6 -6 -6 -6 -6 -6 -6 -6 -6 -5 -5 -6 -6 -6 -5 -4 -4 -5 -4 -4 -4 -4 -3 -3
-4 -4 -5 -5 -5 -5 -6 -6 -6 -6 -6 -6 -6 -6 -7 -7 -6 -6 -6 -6 -6 -6 -6 -6 -6 -6 -6 -5 -5 -5 -4 -5 -5 -4 -4 -4 -4 -3
-4 -5 -5 -5 -5 -6 -6 -6 -6 -6 -6 -7 -7 -7 -7 -7 -7 -7 -7 -7 -7 -7 -6 -6 -6 -6 -6 -6 -6 -5 -5 -4 -4 -4 -4 -4 -4 -4
-5 -5 -5 -5 -6 -6 -6 -6 -6 -7 -7 -7 -7 -7 -7 -7 -7 -7 -7 -7 -7 -7 -7 -6 -6 -6 -6 -6 -6 -6 -5 -5 -5 -4 -4 -4 -4 -4
Wind_Speed
4 4 4 4 4 4 4 4 5 7 7 5 3 2 3 4 6 6 7 9 11 12 11 11 12 12 12 12 13 13 13 13 14 14 14 15 16 16
3 4 4 4 4 4 4 5 5 7 7 4 3 3 4 6 7 7 8 10 11 12 12 12 12 12 13 13 13 13 13 13 13 13 14 15 15 16
5 5 5 5 4 4 4 5 5 6 8 6 4 4 4 4 6 7 9 9 9 12 13 13 13 13 13 14 14 14 13 13 13 14 14 15 15 15
5 5 6 5 5 4 4 5 6 6 6 8 6 5 5 5 5 5 6 8 9 12 12 13 13 13 14 15 15 15 14 13 13 14 14 14 15 15
6 6 6 5 6 5 5 5 5 6 5 6 6 5 4 4 5 5 6 5 8 10 10 11 12 13 14 14 14 14 13 12 12 13 14 14 14 15
5 5 5 5 5 6 6 6 5 6 5 6 6 5 5 4 4 4 6 4 6 7 8 9 11 13 13 14 14 14 13 13 13 13 14 14 14 14
5 5 5 5 6 6 6 6 5 5 5 6 6 5 5 5 5 4 6 5 6 4 4 6 7 7 9 12 12 13 13 13 13 14 14 14 14 15
5 5 5 5 7 9 10 9 8 7 7 6 6 7 7 6 5 5 5 6 6 2 4 7 5 7 6 7 11 13 13 13 13 14 15 15 15 15
5 5 5 5 6 5 7 9 9 10 10 8 8 8 8 6 6 6 6 7 8 6 6 8 5 7 6 9 13 13 13 13 13 14 14 15 15 15
5 5 5 5 5 6 5 6 6 7 9 7 7 7 7 6 6 7 8 7 7 5 5 7 5 6 7 8 12 12 12 12 13 14 14 15 15 15
5 5 5 5 8 9 7 6 7 7 9 10 11 10 11 10 8 5 4 5 7 6 3 4 4 6 6 6 7 10 11 12 13 14 14 14 14 14
5 5 7 8 10 10 6 6 7 7 7 7 7 8 7 7 8 5 4 5 6 5 2 3 4 4 4 4 4 6 8 11 13 14 14 14 13 9
4 4 5 10 11 12 9 6 8 9 6 6 5 4 4 4 4 5 4 5 6 6 4 3 4 4 4 5 5 5 5 5 7 9 11 13 13 10
5 4 5 10 11 12 9 9 10 8 4 4 4 4 4 4 4 5 6 6 7 8 8 6 5 6 6 8 6 5 5 5 5 6 6 10 11 12
5 8 9 11 10 8 9 10 7 4 3 3 4 4 4 4 4 5 5 5 6 7 8 8 6 6 6 7 7 7 7 6 5 5 6 6 6 6
5 7 10 10 8 7 7 6 4 3 3 4 4 4 3 4 4 4 5 4 5 5 4 6 6 6 7 8 8 8 6 5 5 6 7 6 6 6
5 4 3 4 4 4 4 4 3 3 4 3 3 4 4 4 4 4 4 4 5 6 6 4 4 5 7 8 7 7 6 6 6 6 6 7 6 5
6 4 4 4 4 5 5 4 4 3 3 3 3 3 4 4 5 5 4 5 5 5 5 5 5 5 4 4 7 6 5 5 6 5 5 6 7 5
4 4 4 4 4 4 4 4 4 4 3 3 3 3 4 4 5 5 5 5 5 5 5 4 4 5 6 7 4 4 5 6 6 5 5 5 6 6
4 4 5 4 4 4 4 4 4 4 3 3 3 4 4 4 5 5 5 5 6 6 5 4 3 4 6 6 6 6 6 5 5 6 6 5 5 6
4 5 5 4 4 4 4 4 4 4 4 4 4 4 4 4 5 5 5 7 6 5 6 6 5 6 5 4 5 6 4 5 6 5 5 4 5 4
5 5 5 4 4 4 4 3 4 4 4 4 4 4 4 4 5 6 5 5 5 5 6 6 5 4 3 4 6 6 6 6 6 7 6 6 4 3
5 5 5 4 4 4 3 4 4 4 4 4 4 4 4 5 5 5 5 5 5 6 6 6 5 4 4 4 5 5 6 6 5 5 5 6 6 6
Wind_Direction
289 288 285 286 283 278 274 268 267 276 273 266 268 272 310 305 293 291 290 287 286 283 280 281 285 284 279 276 276 277 277 275 272 270 269 271 273 274
286 284 280 281 279 275 274 274 268 265 272 274 275 290 293 300 292 294 288 286 287 282 278 279 282 284 281 278 277 275 277 275 274 272 273 273 273 275
289 286 282 281 280 272 270 269 268 265 269 282 285 291 275 271 287 290 289 284 285 281 278 279 281 282 283 278 278 276 275 276 274 272 273 273 275 278
292 287 286 288 287 280 272 269 268 266 267 278 285 288 284 270 269 277 293 294 292 286 281 281 282 282 284 281 278 276 274 275 276 274 272 274 276 278
294 287 284 285 283 285 284 277 275 277 271 274 281 285 289 284 284 285 285 287 295 290 281 280 281 285 286 284 280 276 273 275 278 278 275 276 278 279
299 295 288 284 285 287 287 284 280 280 278 276 281 286 285 282 273 282 291 288 291 289 283 285 285 285 285 284 283 279 276 276 277 278 278 278 279 279
305 301 298 288 287 290 290 288 283 276 278 279 280 288 286 285 276 281 292 297 292 271 274 282 284 277 280 282 282 279 277 277 277 281 281 279 280 281
304 307 303 296 293 294 291 290 287 282 278 275 278 277 278 281 282 284 293 298 293 268 292 289 279 277 275 275 278 282 279 277 280 284 285 282 280 280
300 301 302 306 309 300 297 295 294 290 281 272 270 271 271 271 273 275 275 279 282 287 292 282 272 274 278 283 283 282 282 283 284 284 285 285 283 282
298 294 293 299 304 306 303 299 290 289 285 278 266 269 269 265 259 265 271 283 290 286 282 277 279 280 289 284 280 280 285 286 287 287 288 288 286 284
304 308 306 301 305 308 305 299 297 292 295 292 287 283 285 286 284 277 273 282 292 290 275 266 281 299 289 275 273 282 289 291 292 291 291 291 288 285
303 303 306 309 311 311 304 298 296 295 297 299 293 286 284 281 285 271 260 268 287 285 252 273 283 306 293 268 274 291 288 289 292 293 292 290 288 279
302 306 308 312 312 310 307 298 291 297 295 291 290 288 285 279 278 284 272 260 271 272 266 275 278 283 278 292 292 281 279 286 290 288 289 290 287 282
295 302 306 310 313 314 313 304 302 305 300 299 297 297 296 293 286 287 287 280 271 267 267 265 264 269 281 288 290 291 293 287 285 284 287 291 285 282
293 300 306 311 314 315 313 310 308 300 293 291 291 293 294 292 296 304 303 300 294 281 275 269 258 263 267 274 280 289 297 293 281 287 289 287 279 275
295 298 303 306 309 310 317 317 307 295 292 284 289 294 299 303 305 309 306 310 305 298 283 278 265 260 270 271 272 278 281 279 289 293 292 286 280 272
300 296 297 305 312 316 318 317 313 309 308 306 303 306 307 309 308 309 300 302 294 298 305 304 290 273 264 266 271 267 276 285 286 291 297 293 284 273
299 296 293 294 301 309 311 314 317 314 311 309 307 304 306 307 308 307 303 298 295 297 301 306 313 313 298 277 249 257 269 281 291 291 288 286 289 288
285 284 286 289 293 299 303 305 308 311 308 301 301 300 299 300 303 304 305 305 302 300 300 300 303 304 304 306 287 242 266 287 294 297 292 284 283 288
280 281 282 283 286 288 291 299 304 307 308 302 294 293 295 295 296 298 300 304 304 303 304 302 296 296 291 291 293 293 279 274 286 293 296 293 287 286
276 279 278 279 281 281 283 286 290 294 297 298 296 293 292 295 294 294 297 301 305 302 301 299 292 294 290 291 294 297 297 285 280 281 291 294 297 299
269 275 277 276 278 275 276 281 285 287 290 290 293 295 295 293 292 294 297 302 302 301 301 300 297 300 299 292 292 298 308 318 316 302 282 267 274 271
266 269 272 271 270 270 270 271 273 277 279 283 288 291 293 294 293 293 296 299 302 302 306 309 310 308 303 293 290 295 303 314 326 333 327 323 310 290
Height
1464 1463 1462 1461 1461 1460 1460 1460 1459 1455 1453 1453 1453 1453 1453 1452 1452 1451 1451 1451 1450 1450 1450 1450 1450 1450 1449 1449 1449 1449 1449 1448 1448 1448 1448 1448 1448 1448
1459 1458 1457 1456 1455 1455 1455 1454 1454 1453 1449 1448 1448 1447 1447 1446 1446 1445 1445 1444 1444 1443 1443 1443 1443 1443 1443 1443 1442 1442 1442 1441 1441 1440 1440 1440 1440 1440
1455 1454 1452 1452 1450 1450 1449 1449 1449 1448 1445 1443 1443 1442 1441 1441 1440 1439 1439 1438 1437 1437 1437 1437 1436 1436 1436 1436 1435 1435 1434 1434 1434 1433 1433 1432 1432 1432
1451 1449 1448 1447 1446 1445 1444 1444 1443 1442 1441 1438 1437 1437 1436 1435 1434 1433 1433 1432 1431 1430 1430 1430 1430 1430 1429 1429 1428 1428 1427 1427 1427 1426 1426 1425 1425 1424
1447 1445 1444 1442 1441 1440 1439 1439 1438 1437 1436 1434 1432 1431 1430 1430 1428 1427 1427 1426 1425 1424 1424 1423 1423 1423 1422 1422 1421 1421 1420 1420 1419 1419 1419 1418 1417 1417
1443 1441 1439 1438 1437 1436 1435 1434 1433 1432 1431 1429 1426 1425 1425 1424 1423 1421 1420 1419 1418 1418 1417 1417 1417 1416 1416 1415 1414 1413 1413 1412 1412 1412 1411 1411 1410 1409
1439 1437 1436 1434 1433 1431 1430 1429 1428 1426 1425 1423 1422 1420 1419 1419 1417 1416 1414 1412 1411 1412 1410 1410 1410 1409 1408 1408 1407 1406 1406 1405 1404 1404 1403 1403 1402 1401
1435 1433 1431 1430 1428 1427 1426 1424 1423 1422 1420 1419 1417 1415 1414 1414 1413 1412 1410 1407 1405 1406 1404 1403 1404 1402 1401 1401 1400 1399 1399 1398 1397 1397 1396 1395 1394 1393
1431 1429 1427 1426 1424 1422 1420 1419 1418 1417 1416 1415 1412 1411 1410 1409 1408 1406 1405 1403 1401 1400 1399 1395 1396 1395 1395 1394 1393 1392 1391 1391 1390 1389 1388 1387 1386 1385
1428 1426 1424 1422 1420 1418 1416 1414 1413 1411 1410 1409 1407 1406 1405 1404 1403 1401 1399 1398 1396 1395 1395 1391 1389 1388 1388 1387 1386 1385 1384 1384 1383 1382 1380 1379 1379 1378
1424 1422 1420 1418 1416 1414 1412 1409 1407 1406 1405 1403 1402 1401 1400 1399 1398 1396 1394 1392 1389 1388 1389 1387 1383 1381 1380 1379 1379 1379 1378 1377 1376 1375 1373 1372 1372 1371
1420 1418 1416 1414 1412 1410 1407 1404 1402 1400 1399 1397 1396 1395 1394 1393 1393 1391 1390 1388 1385 1383 1382 1382 1379 1378 1374 1372 1372 1372 1372 1371 1370 1369 1367 1366 1365 1364
1416 1414 1412 1410 1407 1405 1402 1400 1398 1396 1394 1392 1391 1389 1389 1388 1387 1386 1385 1384 1382 1379 1379 1378 1375 1374 1373 1368 1366 1366 1366 1364 1363 1362 1361 1360 1359 1359
1412 1410 1408 1406 1403 1400 1397 1395 1393 1391 1390 1388 1386 1385 1383 1382 1382 1381 1380 1379 1377 1375 1374 1373 1371 1369 1367 1364 1361 1359 1359 1359 1357 1356 1355 1354 1353 1353
1409 1407 1404 1401 1398 1395 1393 1390 1389 1387 1385 1383 1382 1380 1379 1378 1377 1375 1374 1373 1372 1370 1369 1367 1366 1364 1363 1360 1357 1355 1353 1352 1352 1350 1349 1348 1346 1346
1405 1402 1400 1397 1395 1392 1389 1387 1385 1383 1382 1380 1378 1377 1376 1374 1373 1371 1369 1367 1365 1363 1363 1362 1361 1359 1357 1355 1354 1351 1350 1348 1346 1345 1343 1342 1341 1340
1401 1398 1395 1393 1391 1388 1386 1383 1382 1380 1378 1376 1375 1373 1372 1370 1369 1367 1365 1363 1361 1358 1357 1356 1355 1354 1353 1351 1348 1346 1345 1343 1342 1340 1338 1336 1335 1335
1397 1394 1392 1390 1388 1386 1383 1381 1379 1377 1375 1374 1372 1370 1368 1366 1365 1363 1362 1360 1357 1355 1353 1351 1349 1347 1346 1345 1345 1342 1340 1339 1337 1336 1334 1332 1329 1329
1392 1390 1388 1386 1385 1383 1381 1378 1376 1374 1373 1371 1369 1367 1366 1364 1362 1360 1358 1356 1354 1352 1350 1348 1346 1345 1342 1339 1338 1339 1337 1334 1332 1330 1329 1328 1326 1324
1388 1386 1384 1383 1381 1379 1377 1375 1373 1371 1370 1368 1366 1365 1363 1361 1359 1357 1356 1354 1351 1349 1347 1345 1344 1342 1341 1338 1335 1333 1333 1331 1329 1327 1325 1324 1322 1321
1384 1382 1381 1379 1378 1376 1374 1372 1370 1368 1366 1365 1363 1362 1360 1358 1356 1355 1353 1351 1349 1346 1344 1342 1341 1340 1338 1335 1332 1329 1328 1328 1327 1325 1322 1321 1319 1317
1379 1378 1376 1375 1374 1372 1370 1369 1367 1365 1363 1362 1360 1359 1357 1356 1354 1352 1350 1348 1346 1344 1341 1339 1338 1336 1335 1332 1329 1327 1324 1323 1323 1322 1321 1319 1317 1315
1375 1373 1372 1371 1370 1368 1367 1365 1363 1362 1360 1359 1357 1356 1354 1353 1351 1349 1348 1346 1344 1341 1339 1336 1335 1333 1331 1329 1327 1325 1322 1320 1319 1317 1317 1316 1315 1314